GW1317 Weather Reports


Display with metric or nautical units.
time (UTC)temp
F
wind
direction
speed
MPH
gust
MPH
rain 1hr
in
rain 24hr
in
rain mn
in
humidity
%
barometer
mb
20221003121552 75 100 1.0 5.0 0.00 0.00 0.00 70 1020.8
20221003121034 75 130 3.0 6.0 0.00 0.00 0.00 69 1020.9
20221003120533 75 0 1.0 6.0 0.00 0.00 0.00 70 1021.0
20221003120101 75 96 2.0 6.0 0.00 0.00 0.00 70 1021.0
20221003115534 75 115 0.0 6.0 0.00 0.00 0.00 71 1021.0
20221003115033 74 125 0.0 7.0 0.00 0.00 0.00 72 1021.2
20221003114541 74 125 3.0 7.0 0.00 0.00 0.00 72 1021.2
20221003114033 75 0 1.0 7.0 0.00 0.00 0.00 72 1021.3
20221003113533 75 104 2.0 7.0 0.00 0.00 0.00 71 1021.4
20221003113051 75 0 1.0 5.0 0.00 0.00 0.00 70 1021.5
20221003112533 75 148 1.0 5.0 0.00 0.00 0.00 69 1021.5
20221003112032 75 155 1.0 3.0 0.00 0.00 0.00 69 1021.6
20221003111548 75 0 0.0 2.0 0.00 0.00 0.00 65 1021.7
20221003111032 74 257 0.0 2.0 0.00 0.00 0.00 66 1021.7
20221003110533 74 0 0.0 2.0 0.00 0.00 0.00 66 1021.7
20221003110048 74 0 0.0 2.0 0.00 0.00 0.00 64 1021.9
20221003105534 74 0 0.0 3.0 0.00 0.00 0.00 64 1021.9
20221003105032 74 310 0.0 3.0 0.00 0.00 0.00 62 1022.0
20221003104538 73 305 0.0 3.0 0.00 0.00 0.00 59 1022.0
20221003104032 73 303 0.0 3.0 0.00 0.00 0.00 58 1022.1
20221003103532 73 304 1.0 3.0 0.00 0.00 0.00 58 1022.2
20221003103050 72 0 0.0 3.0 0.00 0.00 0.00 58 1022.1
20221003102532 72 302 0.0 3.0 0.00 0.00 0.00 59 1022.3
20221003102036 72 302 1.0 4.0 0.00 0.00 0.00 59 1022.2
20221003101545 72 303 1.0 4.0 0.00 0.00 0.00 59 1022.2
20221003101033 71 296 1.0 5.0 0.00 0.00 0.00 60 1022.1
20221003100534 71 317 2.0 6.0 0.00 0.00 0.00 60 1022.2
20221003100109 71 327 1.0 6.0 0.00 0.00 0.00 60 1022.3
20221003095534 71 281 2.0 8.0 0.00 0.00 0.00 60 1022.3
20221003095033 70 306 3.0 8.0 0.00 0.00 0.00 60 1022.3
20221003094551 70 294 3.0 8.0 0.00 0.00 0.00 59 1022.4
20221003094033 70 273 3.0 6.0 0.00 0.00 0.00 59 1022.3
20221003093533 70 0 1.0 4.0 0.00 0.00 0.00 59 1022.3
20221003093048 70 293 1.0 4.0 0.00 0.00 0.00 59 1022.2
20221003092531 70 275 1.0 5.0 0.00 0.00 0.00 59 1022.2
20221003092034 69 334 2.0 5.0 0.00 0.00 0.00 59 1022.3
20221003091545 69 292 2.0 6.0 0.00 0.00 0.00 58 1022.3
20221003091032 69 311 2.0 6.0 0.00 0.00 0.00 58 1022.2
20221003090532 69 294 1.0 4.0 0.00 0.00 0.00 59 1022.3
20221003090045 69 273 2.0 4.0 0.00 0.00 0.00 58 1022.2
20221003085532 69 298 0.0 4.0 0.00 0.00 0.00 59 1022.2
20221003085032 68 312 2.0 4.0 0.00 0.00 0.00 59 1022.2
20221003084547 68 278 2.0 5.0 0.00 0.00 0.00 59 1022.1
20221003084032 68 0 1.0 5.0 0.00 0.00 0.00 59 1022.1
20221003083532 68 320 2.0 5.0 0.00 0.00 0.00 59 1022.0
20221003083048 68 296 2.0 5.0 0.00 0.00 0.00 59 1022.0
20221003082533 67 291 2.0 5.0 0.00 0.00 0.00 60 1022.1
20221003082033 67 317 2.0 5.0 0.00 0.00 0.00 60 1022.0
20221003081551 67 319 1.0 5.0 0.00 0.00 0.00 60 1021.9
20221003081032 66 0 2.0 5.0 0.00 0.00 0.00 61 1021.9
20221003080533 66 329 2.0 5.0 0.00 0.00 0.00 60 1021.9
20221003080048 66 335 1.0 6.0 0.00 0.00 0.00 60 1022.0
20221003075532 66 308 2.0 6.0 0.00 0.00 0.00 60 1022.0
20221003075032 66 309 2.0 7.0 0.00 0.00 0.00 60 1022.0
20221003074549 65 302 2.0 7.0 0.00 0.00 0.00 61 1021.9
20221003074032 65 311 3.0 7.0 0.00 0.00 0.00 61 1021.8
20221003073532 65 328 2.0 7.0 0.00 0.00 0.00 61 1021.8
20221003073042 65 261 2.0 7.0 0.00 0.00 0.00 61 1021.8
20221003072532 64 286 2.0 7.0 0.00 0.00 0.00 61 1021.9
20221003072032 64 302 2.0 5.0 0.00 0.00 0.00 61 1021.9
20221003071546 64 294 2.0 8.0 0.00 0.00 0.00 61 1021.9
20221003071032 63 292 3.0 8.0 0.00 0.00 0.00 62 1021.7
20221003070533 63 316 2.0 8.0 0.00 0.00 0.00 62 1021.8
20221003070049 63 273 3.0 8.0 0.00 0.00 0.00 62 1021.7
20221003065533 63 320 2.0 8.0 0.00 0.00 0.00 63 1021.7
20221003065032 63 292 4.0 8.0 0.00 0.00 0.00 64 1021.7
20221003064539 62 319 3.0 7.0 0.00 0.00 0.00 64 1021.5
20221003064032 62 248 3.0 7.0 0.00 0.00 0.00 64 1021.4
20221003063534 62 297 2.0 8.0 0.00 0.00 0.00 64 1021.5
20221003063048 63 288 3.0 8.0 0.00 0.00 0.00 64 1021.5
20221003062532 63 304 3.0 8.0 0.00 0.00 0.00 64 1021.4
20221003062031 63 319 2.0 8.0 0.00 0.00 0.00 64 1021.3
20221003061539 63 313 1.0 4.0 0.00 0.00 0.00 65 1021.2
20221003061033 63 317 1.0 4.0 0.00 0.00 0.00 65 1021.1
20221003060534 62 304 1.0 3.0 0.00 0.00 0.00 65 1021.5
20221003060050 62 329 1.0 5.0 0.00 0.00 0.00 66 1021.3
20221003055535 62 329 1.0 5.0 0.00 0.00 0.00 66 1021.3
20221003055033 62 304 2.0 5.0 0.00 0.00 0.00 67 1021.3
20221003054548 62 287 1.0 4.0 0.00 0.00 0.00 68 1021.3
20221003054032 62 292 2.0 4.0 0.00 0.00 0.00 68 1021.3
20221003053531 62 0 0.0 2.0 0.00 0.00 0.00 70 1021.3
20221003053049 62 0 0.0 2.0 0.00 0.00 0.00 70 1021.4
20221003052533 62 0 1.0 3.0 0.00 0.00 0.00 70 1021.4
20221003052032 62 296 0.0 3.0 0.00 0.00 0.00 70 1021.5
20221003051541 62 296 1.0 3.0 0.00 0.00 0.00 70 1021.6
20221003051032 62 296 1.0 3.0 0.00 0.00 0.00 70 1021.6
20221003050532 62 283 1.0 3.0 0.00 0.00 0.00 70 1021.4
20221003050059 62 0 1.0 2.0 0.00 0.00 0.00 71 1021.5
20221003045532 62 0 0.0 2.0 0.00 0.00 0.00 71 1021.5
20221003045034 62 283 1.0 2.0 0.00 0.00 0.00 71 1021.5
20221003044538 62 283 0.0 2.0 0.00 0.00 0.00 71 1021.5
20221003044032 62 283 1.0 2.0 0.00 0.00 0.00 70 1021.5
20221003043532 62 283 0.0 3.0 0.00 0.00 0.00 69 1021.4
20221003043044 63 283 1.0 4.0 0.00 0.00 0.00 69 1021.4
20221003042532 63 283 1.0 4.0 0.00 0.00 0.00 68 1021.3
20221003042034 63 300 1.0 5.0 0.00 0.00 0.00 68 1021.4
20221003041547 63 304 2.0 5.0 0.00 0.00 0.00 68 1021.4
20221003041032 63 360 2.0 7.0 0.00 0.00 0.00 68 1021.3
20221003040533 63 322 2.0 7.0 0.00 0.00 0.00 68 1021.3
20221003040042 63 300 2.0 5.0 0.00 0.00 0.00 68 1021.3
20221003035532 63 304 2.0 5.0 0.00 0.00 0.00 68 1021.3
20221003035032 63 336 2.0 5.0 0.00 0.00 0.00 68 1021.3
20221003034542 63 287 1.0 4.0 0.00 0.00 0.00 69 1021.4
20221003034033 63 302 1.0 4.0 0.00 0.00 0.00 70 1021.3
20221003033533 63 333 1.0 4.0 0.00 0.00 0.00 72 1021.3
20221003033045 62 334 2.0 4.0 0.00 0.00 0.00 72 1021.5
20221003032533 63 339 1.0 3.0 0.00 0.00 0.00 73 1021.5
20221003032033 63 0 0.0 3.0 0.00 0.00 0.00 73 1021.6
20221003031541 63 348 2.0 3.0 0.00 0.00 0.00 73 1021.6
20221003031032 63 292 0.0 3.0 0.00 0.00 0.00 73 1021.7
20221003030530 62 292 1.0 3.0 0.00 0.00 0.00 74 1021.7
20221003030047 63 292 1.0 3.0 0.00 0.00 0.00 74 1021.8
20221003025532 62 304 1.0 3.0 0.00 0.00 0.00 73 1021.8
20221003025033 62 304 1.0 3.0 0.00 0.00 0.00 74 1021.8
20221003024539 62 290 1.0 3.0 0.00 0.00 0.00 75 1021.9
20221003024032 62 294 1.0 3.0 0.00 0.00 0.00 75 1021.9
20221003023535 62 294 0.0 2.0 0.00 0.00 0.00 76 1021.8
20221003023049 62 0 0.0 2.0 0.00 0.00 0.00 76 1022.0
20221003022532 62 294 0.0 2.0 0.00 0.00 0.00 76 1022.0
20221003022032 62 0 0.0 2.0 0.00 0.00 0.00 76 1022.0
20221003021544 62 0 0.0 2.0 0.00 0.00 0.00 75 1021.9
20221003021032 62 0 0.0 2.0 0.00 0.00 0.00 75 1021.9
20221003020533 62 0 0.0 2.0 0.00 0.00 0.00 75 1022.0
20221003020048 62 294 0.0 2.0 0.00 0.00 0.00 75 1022.0
20221003015532 62 0 1.0 2.0 0.00 0.00 0.00 76 1022.1
20221003015032 62 0 0.0 2.0 0.00 0.00 0.00 76 1022.1
20221003014541 62 0 0.0 3.0 0.00 0.00 0.00 77 1022.2
20221003014033 61 294 1.0 3.0 0.00 0.00 0.00 77 1022.2
20221003013533 61 294 0.0 3.0 0.00 0.00 0.00 77 1022.3
20221003013040 62 294 1.0 4.0 0.00 0.00 0.00 77 1022.3
20221003012532 62 0 1.0 4.0 0.00 0.00 0.00 77 1022.2
20221003012033 62 308 2.0 5.0 0.00 0.00 0.00 77 1022.2
20221003011549 62 259 2.0 5.0 0.00 0.00 0.00 77 1022.1
20221003011033 62 292 2.0 6.0 0.00 0.00 0.00 77 1022.2
20221003010533 62 325 3.0 6.0 0.00 0.00 0.00 77 1022.3
20221003010042 62 302 2.0 7.0 0.00 0.00 0.00 77 1022.3
20221003005534 63 292 2.0 7.0 0.00 0.00 0.00 76 1022.3
20221003005033 63 325 2.0 7.0 0.00 0.00 0.00 76 1022.3
20221003004543 63 319 3.0 7.0 0.00 0.00 0.00 76 1022.3
20221003004033 63 326 3.0 9.0 0.00 0.00 0.00 76 1022.4
20221003003533 63 329 3.0 9.0 0.00 0.00 0.00 76 1022.4
20221003003048 63 345 3.0 9.0 0.00 0.00 0.00 76 1022.5
20221003002533 63 315 4.0 9.0 0.00 0.00 0.00 76 1022.6
20221003002033 63 323 3.0 8.0 0.00 0.00 0.00 76 1022.6
20221003001542 63 299 3.0 8.0 0.00 0.00 0.00 76 1022.7
20221003001034 63 46 2.0 8.0 0.00 0.00 0.00 76 1022.9
20221003000533 63 329 3.0 8.0 0.00 0.00 0.00 76 1023.0
20221003000043 63 263 2.0 8.0 0.00 0.00 0.00 77 1022.9
20221002235533 63 302 3.0 9.0 0.00 0.00 0.00 77 1022.9
20221002235034 63 292 3.0 9.0 0.00 0.00 0.00 78 1023.1
20221002234543 63 288 2.0 6.0 0.00 0.00 0.00 78 1023.0
20221002234033 64 309 2.0 6.0 0.00 0.00 0.00 77 1023.0
20221002233533 64 333 2.0 9.0 0.00 0.00 0.00 77 1023.0
20221002233041 64 311 3.0 9.0 0.00 0.00 0.00 77 1023.1
20221002232534 64 293 3.0 9.0 0.00 0.00 0.00 76 1023.3
20221002232036 64 309 3.0 7.0 0.00 0.00 0.00 77 1023.3
20221002231540 64 296 2.0 7.0 0.00 0.00 0.00 77 1023.4
20221002231033 64 267 3.0 7.0 0.00 0.00 0.00 77 1023.3
20221002230533 64 317 2.0 7.0 0.00 0.00 0.00 77 1023.2
20221002230050 64 304 2.0 7.0 0.00 0.00 0.00 77 1023.4
20221002225533 64 296 2.0 7.0 0.00 0.00 0.00 77 1023.4
20221002225033 64 323 2.0 7.0 0.00 0.00 0.00 78 1023.5
20221002224539 64 295 3.0 7.0 0.00 0.00 0.00 78 1023.6
20221002224033 64 306 3.0 6.0 0.00 0.00 0.00 79 1023.5
20221002223533 64 310 2.0 6.0 0.00 0.00 0.00 78 1023.4
20221002223049 64 311 2.0 5.0 0.00 0.00 0.00 78 1023.6
20221002222533 65 5 2.0 5.0 0.00 0.00 0.00 78 1023.6
20221002222036 65 331 1.0 6.0 0.00 0.00 0.00 78 1023.6
20221002221539 65 299 3.0 8.0 0.00 0.00 0.00 78 1023.6
20221002221033 65 317 3.0 8.0 0.00 0.00 0.00 78 1023.7
20221002220533 65 311 3.0 8.0 0.00 0.00 0.00 78 1023.7
20221002220051 65 275 3.0 8.0 0.00 0.00 0.00 78 1023.7
20221002215533 65 268 3.0 7.0 0.00 0.00 0.00 78 1023.6
20221002215033 65 298 3.0 7.0 0.00 0.00 0.00 78 1023.5
20221002214541 65 309 4.0 8.0 0.00 0.00 0.00 78 1023.6
20221002214033 66 310 3.0 8.0 0.00 0.00 0.00 78 1023.7
20221002213534 66 281 3.0 8.0 0.00 0.00 0.00 77 1023.6
20221002213042 67 247 3.0 5.0 0.00 0.00 0.00 78 1023.4
20221002212533 67 304 2.0 5.0 0.00 0.00 0.00 77 1023.5
20221002212034 67 294 2.0 5.0 0.00 0.00 0.00 77 1023.5
20221002211538 68 327 1.0 5.0 0.00 0.00 0.00 77 1023.5
20221002211033 68 336 1.0 4.0 0.00 0.00 0.00 77 1023.5
20221002210534 68 0 1.0 3.0 0.00 0.00 0.00 77 1023.5
20221002210045 68 323 0.0 3.0 0.00 0.00 0.00 76 1023.5
20221002205537 68 323 1.0 3.0 0.00 0.00 0.00 76 1023.7
20221002205033 68 30 0.0 3.0 0.00 0.00 0.00 76 1023.7
20221002204543 69 46 0.0 2.0 0.00 0.00 0.00 75 1023.8
20221002204034 69 0 0.0 2.0 0.00 0.00 0.00 75 1023.8
20221002203534 69 46 0.0 2.0 0.00 0.00 0.00 75 1023.7
20221002203051 69 0 0.0 1.0 0.00 0.00 0.00 74 1023.8
20221002202535 70 0 0.0 1.0 0.00 0.00 0.00 74 1023.7
20221002202049 70 0 0.0 1.0 0.00 0.00 0.00 74 1023.8
20221002201541 70 0 0.0 1.0 0.00 0.00 0.00 74 1023.7
20221002201031 70 0 0.0 2.0 0.00 0.00 0.00 74 1023.5
20221002200531 70 0 0.0 2.0 0.00 0.00 0.00 73 1023.5
20221002200037 70 0 0.0 2.0 0.00 0.00 0.00 74 1023.6
20221002195532 70 0 0.0 2.0 0.00 0.00 0.00 73 1023.5
20221002195032 70 0 0.0 2.0 0.00 0.00 0.00 73 1023.5
20221002194549 70 0 0.0 1.0 0.00 0.00 0.00 73 1023.4
20221002194029 70 0 0.0 1.0 0.00 0.00 0.00 72 1023.4
20221002193531 71 0 0.0 2.0 0.00 0.00 0.00 72 1023.3
20221002193044 71 0 0.0 2.0 0.00 0.00 0.00 72 1023.3
20221002192531 71 0 0.0 2.0 0.00 0.00 0.00 72 1023.1
20221002192028 71 0 0.0 2.0 0.00 0.00 0.00 72 1023.2
20221002191542 71 0 0.0 1.0 0.00 0.00 0.00 71 1023.1
20221002191031 71 0 0.0 1.0 0.00 0.00 0.00 71 1023.1
20221002190532 72 46 0.0 1.0 0.00 0.00 0.00 71 1023.1
20221002190037 72 0 0.0 2.0 0.00 0.00 0.00 70 1023.1
20221002185529 72 0 0.0 2.0 0.00 0.00 0.00 70 1023.0
20221002185029 72 0 0.0 2.0 0.00 0.00 0.00 70 1022.9
20221002184538 72 0 0.0 2.0 0.00 0.00 0.00 70 1022.9
20221002184030 72 0 0.0 2.0 0.00 0.00 0.00 69 1022.9
20221002183530 73 68 0.0 2.0 0.00 0.00 0.00 69 1022.9
20221002183036 73 82 1.0 3.0 0.00 0.00 0.00 69 1022.9
20221002182533 73 0 1.0 3.0 0.00 0.00 0.00 69 1022.9
20221002182029 73 102 0.0 3.0 0.00 0.00 0.00 70 1023.0
20221002181546 73 102 1.0 3.0 0.00 0.00 0.00 69 1023.0
20221002181032 73 102 1.0 4.0 0.00 0.00 0.00 69 1023.0
20221002180529 73 92 2.0 4.0 0.00 0.00 0.00 68 1023.0
20221002180057 73 92 1.0 3.0 0.00 0.00 0.00 68 1022.9
20221002175529 73 92 0.0 4.0 0.00 0.00 0.00 67 1023.0
20221002175035 73 67 0.0 4.0 0.00 0.00 0.00 67 1023.1
20221002174541 73 126 1.0 4.0 0.00 0.00 0.00 67 1023.0
20221002174031 74 122 1.0 4.0 0.00 0.00 0.00 66 1023.1
20221002173532 74 88 2.0 6.0 0.00 0.00 0.00 66 1023.2
20221002173044 74 84 2.0 6.0 0.00 0.00 0.00 66 1023.2
20221002172531 74 101 2.0 7.0 0.00 0.00 0.00 66 1023.4
20221002172031 74 118 3.0 7.0 0.00 0.00 0.00 65 1023.5
20221002171537 74 98 4.0 7.0 0.00 0.00 0.00 66 1023.6
20221002171033 74 108 3.0 9.0 0.00 0.00 0.00 66 1023.6
20221002170534 74 123 4.0 9.0 0.00 0.00 0.00 66 1023.6
20221002170043 75 130 4.0 8.0 0.00 0.00 0.00 65 1023.5
20221002165534 75 132 4.0 9.0 0.00 0.00 0.00 64 1023.6
20221002165032 75 134 5.0 9.0 0.00 0.00 0.00 64 1023.5
20221002164542 75 116 5.0 9.0 0.00 0.00 0.00 65 1023.5
20221002164031 75 121 5.0 10.0 0.00 0.00 0.00 63 1023.4
20221002163533 75 100 5.0 10.0 0.00 0.00 0.00 61 1023.5
20221002163047 75 121 6.0 10.0 0.00 0.00 0.00 62 1023.5
20221002162532 76 128 5.0 10.0 0.00 0.00 0.00 60 1023.4
20221002162031 76 119 4.0 9.0 0.00 0.00 0.00 61 1023.4
20221002161538 76 211 5.0 11.0 0.00 0.00 0.00 59 1023.4
20221002161033 76 111 5.0 11.0 0.00 0.00 0.00 60 1023.4
20221002160534 77 141 4.0 9.0 0.00 0.00 0.00 58 1023.4
20221002160045 76 131 6.0 12.0 0.00 0.00 0.00 57 1023.4
20221002155534 77 127 5.0 12.0 0.00 0.00 0.00 57 1023.4
20221002155032 77 170 3.0 9.0 0.00 0.00 0.00 56 1023.2
20221002154543 77 134 5.0 9.0 0.00 0.00 0.00 55 1023.2
20221002154033 78 135 4.0 10.0 0.00 0.00 0.00 55 1023.3
20221002153533 78 98 4.0 10.0 0.00 0.00 0.00 54 1023.4
20221002153059 78 122 4.0 10.0 0.00 0.00 0.00 52 1023.3
20221002152534 78 107 4.0 9.0 0.00 0.00 0.00 51 1023.3
20221002152033 78 126 4.0 10.0 0.00 0.00 0.00 48 1023.4
20221002151543 78 120 4.0 10.0 0.00 0.00 0.00 47 1023.4
20221002151031 79 94 4.0 9.0 0.00 0.00 0.00 43 1023.5
20221002150534 79 116 3.0 9.0 0.00 0.00 0.00 41 1023.5
20221002150047 79 88 4.0 9.0 0.00 0.00 0.00 43 1023.5
20221002145534 79 117 3.0 9.0 0.00 0.00 0.00 44 1023.5
20221002145031 79 62 2.0 9.0 0.00 0.00 0.00 45 1023.5
20221002144547 78 114 4.0 10.0 0.00 0.00 0.00 43 1023.7
20221002144032 78 121 4.0 10.0 0.00 0.00 0.00 44 1023.7
20221002143051 79 95 3.0 10.0 0.00 0.00 0.00 39 1023.9
20221002142531 79 114 2.0 10.0 0.00 0.00 0.00 44 1024.0
20221002142031 79 127 6.0 10.0 0.00 0.00 0.00 44 1024.0
20221002141543 79 89 5.0 10.0 0.00 0.00 0.00 46 1024.1
20221002141033 79 108 6.0 10.0 0.00 0.00 0.00 46 1024.2
20221002140532 78 121 4.0 11.0 0.00 0.00 0.00 45 1024.3
20221002140042 78 132 6.0 11.0 0.00 0.00 0.00 44 1024.4
20221002135533 79 110 5.0 9.0 0.00 0.00 0.00 42 1024.4
20221002135033 79 162 4.0 8.0 0.00 0.00 0.00 44 1024.3
20221002134547 78 117 3.0 10.0 0.00 0.00 0.00 47 1024.3
20221002134033 78 128 5.0 13.0 0.00 0.00 0.00 48 1024.5
20221002133533 78 111 5.0 13.0 0.00 0.00 0.00 46 1024.5
20221002133052 79 134 5.0 10.0 0.00 0.00 0.00 47 1024.5
20221002132533 79 121 4.0 10.0 0.00 0.00 0.00 47 1024.5
20221002132033 79 146 5.0 12.0 0.00 0.00 0.00 46 1024.7
20221002131546 78 92 4.0 12.0 0.00 0.00 0.00 44 1024.9
20221002131034 78 129 6.0 11.0 0.00 0.00 0.00 47 1025.1
20221002130534 79 101 5.0 11.0 0.00 0.00 0.00 44 1025.2
20221002130054 79 138 4.0 10.0 0.00 0.00 0.00 43 1025.2
20221002125533 79 96 6.0 10.0 0.00 0.00 0.00 42 1025.2
20221002125033 79 157 2.0 9.0 0.00 0.00 0.00 44 1025.4
20221002124548 78 176 3.0 9.0 0.00 0.00 0.00 45 1025.4
20221002124034 78 116 5.0 9.0 0.00 0.00 0.00 45 1025.4
20221002123534 78 115 5.0 9.0 0.00 0.00 0.00 44 1025.6
20221002123051 78 132 5.0 9.0 0.00 0.00 0.00 45 1025.6
20221002122536 78 110 3.0 10.0 0.00 0.00 0.00 46 1025.6
20221002122033 78 142 2.0 10.0 0.00 0.00 0.00 44 1025.6